Find Starlink 11748

NORAD ID: 64373 Int'l Des: 2025-127 Owner: SPXS Country: US Constellation: starlink operational
LEOCIRCULAR

現在のビュー

3D地球を読み込み中...

About Starlink 11748

Starlink 11748 (NORAD 64373) is a starlink constellation satellite (v2 mini d2c) launched Jun 13, 2025 by SPXS of US. It operates in LEO, CIRCULAR orbit with a mass of 960.00 kg.

Starlink 11748について

説明を読み込み中...

次回通過

Passes for default location (London). Set your location on the main map for personalized predictions.

高度履歴

Loading altitude history...

軌道要素

1 64373U 25127D 26162.51479747 .00035436 00000-0 27858-3 0 9995
2 64373 42.9994 239.4355 0002536 297.5795 62.4815 15.70828836 58257
Epoch: Jun 11, 2026 • Age: 7 hours

現在のステータス

高度 368.3 km
速度 7.69 km/s
衛星直下点 -42.90°S, 53.95°W
打ち上げ日 Jun 13, 2025
運用期間 0.9 years
タイプ internet

技術仕様

分類 Payload
質量 960.00 kg
乾燥質量 910.00 kg
総質量 960.00 kg
長さ 0.30 m
直径 4.10 m
スパン 29.00 m
形状 Box + pan
製造者 SPXS
バスタイプ Starlink V2MD
フェーズステータス In Orbit
所有者/国 SPXS/US

Most Searched